This is the latest recevied weather packets stored in our database for station/object KI5GCD-13. If no packets are shown the sender has not sent any weather packets the latest 1 day(s).
| Time | Temp. | Humidity | Pressure | Rain* | Wind** | Luminosity | Snow |
|---|---|---|---|---|---|---|---|
| 1778102388 | 16.11° C | 56% | 1011.9 hPa | 0 mm | 2.68 m/s, 56° | - | - |
| 1778101487 | 16.11° C | 59% | 1012.1 hPa | 0 mm | 2.24 m/s, 32° | - | - |
| 1778099687 | 15.56° C | 58% | 1012.6 hPa | 0 mm | 0.45 m/s, 128° | - | - |
| 1778099087 | 15.56° C | 64% | 1012.9 hPa | 0 mm | 0.89 m/s, 350° | - | - |
| 1778096987 | 15° C | 62% | 1013.2 hPa | 0 mm | 0.89 m/s, 246° | - | - |
| 1778094288 | 15° C | 62% | 1013.3 hPa | 0 mm | 1.79 m/s, 34° | - | - |
| 1778093988 | 15.56° C | 60% | 1013.1 hPa | 0 mm | 2.24 m/s, 26° | - | - |
| 1778092788 | 15.56° C | 60% | 1013.3 hPa | 0 mm | 0.45 m/s, 293° | - | - |
| 1778091288 | 15.56° C | 60% | 1013.8 hPa | 0 mm | 0.89 m/s, 339° | - | - |
| 1778088887 | 13.89° C | 65% | 1014.7 hPa | 0 mm | 2.24 m/s, 73° | - | - |
| 1778088287 | 13.89° C | 67% | 1014.7 hPa | 0 mm | 1.34 m/s, 64° | - | - |
| 1778087687 | 13.33° C | 66% | 1014.8 hPa | 0 mm | 1.79 m/s, 322° | - | - |
| 1778087388 | 13.89° C | 67% | 1014.3 hPa | 0 mm | 2.68 m/s, 32° | - | - |
| 1778086788 | 13.33° C | 69% | 1014.3 hPa | 0 mm | 0.89 m/s, 34° | - | - |
| 1778085587 | 12.78° C | 69% | 1014.1 hPa | 0 mm | 1.34 m/s, 162° | - | - |
| 1778084388 | 13.33° C | 70% | 1013.8 hPa | 0 mm | 0.45 m/s, 169° | - | - |
| 1778084087 | 12.78° C | 71% | 1013.6 hPa | 0 mm | 1.34 m/s, 253° | - | - |
| 1778083787 | 12.78° C | 70% | 1013.3 hPa | 0 mm | 1.34 m/s, 356° | - | - |
| 1778082587 | 12.78° C | 72% | 1013.2 hPa | 0 mm | 1.79 m/s, 4° | - | - |
| 1778081387 | 12.22° C | 73% | 1013.6 hPa | 0 mm | 0.89 m/s, 5° | - | - |
| 1778079887 | 11.11° C | 77% | 1013.1 hPa | 0 mm | 1.34 m/s, 87° | - | - |
| 1778079587 | 11.11° C | 78% | 1013.3 hPa | 0 mm | 1.79 m/s, 25° | - | - |
| 1778078687 | 10° C | 81% | 1013.2 hPa | 0 mm | 0.89 m/s, 280° | - | - |
| 1778077187 | 9.44° C | 81% | 1013.5 hPa | 0 mm | 0.89 m/s, 241° | - | - |
| 1778076887 | 9.44° C | 82% | 1013.6 hPa | 0 mm | 0.45 m/s, 92° | - | - |
* Rain latest hour (hover to see other rain measurements)
** Current wind speed in m/s (hover to see current wind gust speed)